N464MW LFPN-LFBH

Flight info

Callsign N464MW
Flight time 1h 15m
Altitude 8000
Route BCY DCT BLB DCT AMB DCT POI DCT RL
Aircraft S22T/L-SDGRY/S

Departure

Time 2026-04-27 13:10
Airport Toussus-le-Noble Airport (LFPN)

Arrival

Time 2026-04-27 14:26
Airport La Rochelle Île de Ré Airport (LFBH)
Time Latitude Longitude Altitude Speed Heading
2026-04-27 13:10 48.72480 1.80267 7996 ft 175 kts 220°
2026-04-27 13:10 48.71315 1.79723 7995 ft 183 kts 176°
2026-04-27 13:10 48.70144 1.80480 7989 ft 187 kts 145°
2026-04-27 13:11 48.69082 1.81646 7988 ft 189 kts 144°
2026-04-27 13:11 48.67975 1.82738 7987 ft 191 kts 148°
2026-04-27 13:11 48.66839 1.83779 7995 ft 191 kts 149°
2026-04-27 13:11 48.65697 1.84823 7990 ft 192 kts 148°
2026-04-27 13:12 48.64552 1.85874 7991 ft 193 kts 148°
2026-04-27 13:12 48.63404 1.86927 7983 ft 193 kts 148°
2026-04-27 13:12 48.62261 1.87977 7984 ft 192 kts 148°
2026-04-27 13:12 48.61117 1.89026 7980 ft 192 kts 148°
2026-04-27 13:13 48.59974 1.90075 7980 ft 192 kts 148°
2026-04-27 13:13 48.58831 1.91121 7977 ft 192 kts 148°
2026-04-27 13:13 48.57690 1.92169 7977 ft 192 kts 148°
2026-04-27 13:13 48.56545 1.93218 7986 ft 193 kts 148°
2026-04-27 13:14 48.55397 1.94267 7973 ft 193 kts 149°
2026-04-27 13:14 48.54250 1.95315 7972 ft 193 kts 148°
2026-04-27 13:14 48.53104 1.96362 7977 ft 192 kts 148°
2026-04-27 13:14 48.51959 1.97409 7972 ft 192 kts 148°
2026-04-27 13:15 48.50818 1.98449 7975 ft 192 kts 148°
2026-04-27 13:15 48.49679 1.99496 7970 ft 192 kts 148°
2026-04-27 13:15 48.48520 2.00501 7968 ft 193 kts 155°
2026-04-27 13:15 48.47208 2.00876 7965 ft 193 kts 180°
2026-04-27 13:16 48.45865 2.00819 7964 ft 193 kts 181°
2026-04-27 13:16 48.44519 2.00779 7963 ft 193 kts 181°
2026-04-27 13:16 48.43181 2.00748 7963 ft 192 kts 181°
2026-04-27 13:16 48.41848 2.00712 7963 ft 192 kts 181°
2026-04-27 13:17 48.40513 2.00674 7963 ft 192 kts 181°
2026-04-27 13:17 48.39180 2.00638 7966 ft 192 kts 181°
2026-04-27 13:17 48.37840 2.00603 7965 ft 193 kts 181°
2026-04-27 13:17 48.36499 2.00566 7961 ft 192 kts 181°
2026-04-27 13:18 48.35159 2.00531 7960 ft 193 kts 181°
2026-04-27 13:18 48.33818 2.00484 7961 ft 193 kts 181°
2026-04-27 13:18 48.32478 2.00457 7962 ft 193 kts 181°
2026-04-27 13:18 48.31137 2.00425 7958 ft 192 kts 181°
2026-04-27 13:19 48.29800 2.00388 7963 ft 193 kts 181°
2026-04-27 13:19 48.28460 2.00425 7957 ft 192 kts 178°
2026-04-27 13:19 48.27139 2.00457 7956 ft 193 kts 179°
2026-04-27 13:19 48.25801 2.00486 7957 ft 193 kts 179°
2026-04-27 13:20 48.24460 2.00523 7957 ft 192 kts 179°
2026-04-27 13:20 48.23122 2.00564 7957 ft 192 kts 179°
2026-04-27 13:20 48.21784 2.00598 7956 ft 192 kts 179°
2026-04-27 13:20 48.20444 2.00639 7956 ft 193 kts 179°
2026-04-27 13:21 48.19085 2.00676 7956 ft 193 kts 179°
2026-04-27 13:21 48.17754 2.00710 7957 ft 194 kts 179°
2026-04-27 13:21 48.16410 2.00753 7956 ft 193 kts 179°
2026-04-27 13:21 48.15071 2.00784 7955 ft 193 kts 180°
2026-04-27 13:22 48.13730 2.00822 7958 ft 193 kts 178°
2026-04-27 13:22 48.12386 2.00874 7956 ft 193 kts 179°
2026-04-27 13:22 48.11039 2.00912 7959 ft 193 kts 179°
2026-04-27 13:22 48.09696 2.00880 7952 ft 193 kts 188°
2026-04-27 13:23 48.08455 2.00156 7956 ft 192 kts 212°
2026-04-27 13:23 48.07491 1.98795 7956 ft 191 kts 234°
2026-04-27 13:23 48.06834 1.97074 7961 ft 190 kts 242°
2026-04-27 13:23 48.06172 1.95354 7968 ft 191 kts 240°
2026-04-27 13:24 48.05505 1.93644 7998 ft 189 kts 240°
2026-04-27 13:24 48.04870 1.92000 8201 ft 180 kts 240°
2026-04-27 13:24 48.04241 1.90380 8323 ft 179 kts 240°
2026-04-27 13:24 48.03641 1.88824 8667 ft 169 kts 240°
2026-04-27 13:25 48.03050 1.87295 8846 ft 170 kts 240°
2026-04-27 13:25 48.02459 1.85760 9043 ft 170 kts 240°
2026-04-27 13:25 48.01875 1.84258 9395 ft 161 kts 240°
2026-04-27 13:25 48.01324 1.82831 9734 ft 159 kts 240°
2026-04-27 13:26 48.00771 1.81398 10019 ft 160 kts 240°
2026-04-27 13:26 48.00212 1.79958 10276 ft 161 kts 240°
2026-04-27 13:26 47.99652 1.78512 10546 ft 161 kts 240°
2026-04-27 13:26 47.99093 1.77059 10804 ft 162 kts 239°
2026-04-27 13:27 47.98522 1.75606 11060 ft 163 kts 237°
2026-04-27 13:27 47.97809 1.74286 11307 ft 164 kts 229°
2026-04-27 13:27 47.97071 1.72983 11584 ft 164 kts 230°
2026-04-27 13:27 47.96341 1.71674 11872 ft 164 kts 230°
2026-04-27 13:28 47.95610 1.70367 12158 ft 164 kts 230°
2026-04-27 13:28 47.94875 1.69048 12403 ft 166 kts 230°
2026-04-27 13:28 47.94133 1.67721 12671 ft 167 kts 230°
2026-04-27 13:28 47.93390 1.66387 12951 ft 168 kts 229°
2026-04-27 13:29 47.92641 1.65048 13221 ft 168 kts 229°
2026-04-27 13:29 47.91892 1.63707 13494 ft 169 kts 229°
2026-04-27 13:29 47.91135 1.62359 13765 ft 170 kts 229°
2026-04-27 13:29 47.90375 1.61002 14026 ft 170 kts 229°
2026-04-27 13:30 47.89614 1.59646 14261 ft 171 kts 229°
2026-04-27 13:30 47.88855 1.58285 14509 ft 171 kts 229°
2026-04-27 13:30 47.88090 1.56923 14758 ft 172 kts 229°
2026-04-27 13:30 47.87325 1.55563 15017 ft 170 kts 230°
2026-04-27 13:31 47.86572 1.54218 15298 ft 169 kts 230°
2026-04-27 13:31 47.85814 1.52871 15538 ft 171 kts 230°
2026-04-27 13:31 47.85053 1.51519 15803 ft 170 kts 230°
2026-04-27 13:31 47.84305 1.50185 16105 ft 167 kts 230°
2026-04-27 13:32 47.83559 1.48859 16345 ft 168 kts 230°
2026-04-27 13:32 47.82802 1.47517 16560 ft 170 kts 230°
2026-04-27 13:32 47.82040 1.46164 16781 ft 172 kts 230°
2026-04-27 13:32 47.81274 1.44803 17037 ft 171 kts 230°
2026-04-27 13:33 47.80509 1.43450 17321 ft 172 kts 230°
2026-04-27 13:33 47.79738 1.42081 17586 ft 173 kts 230°
2026-04-27 13:33 47.78967 1.40711 17862 ft 172 kts 230°
2026-04-27 13:33 47.78195 1.39346 18134 ft 173 kts 230°
2026-04-27 13:34 47.77423 1.37978 18406 ft 173 kts 230°
2026-04-27 13:34 47.76650 1.36608 18648 ft 173 kts 230°
2026-04-27 13:34 47.75877 1.35241 18886 ft 173 kts 230°
2026-04-27 13:34 47.75090 1.33853 18988 ft 179 kts 230°
2026-04-27 13:35 47.74285 1.32430 19164 ft 180 kts 230°
2026-04-27 13:35 47.73482 1.31006 19352 ft 180 kts 230°
2026-04-27 13:35 47.72673 1.29584 19542 ft 180 kts 229°
2026-04-27 13:35 47.71864 1.28158 19741 ft 180 kts 230°
2026-04-27 13:36 47.71056 1.26728 19899 ft 181 kts 230°
2026-04-27 13:36 47.70247 1.25300 20089 ft 181 kts 229°
2026-04-27 13:36 47.69438 1.23878 20164 ft 186 kts 229°
2026-04-27 13:36 47.68591 1.22383 20171 ft 192 kts 229°
2026-04-27 13:37 47.67694 1.20893 20178 ft 195 kts 222°
2026-04-27 13:37 47.66544 1.19791 20178 ft 200 kts 206°
2026-04-27 13:37 47.65237 1.19049 20175 ft 201 kts 202°
2026-04-27 13:37 47.63928 1.18307 20175 ft 202 kts 202°
2026-04-27 13:38 47.62614 1.17562 20174 ft 203 kts 202°
2026-04-27 13:38 47.61293 1.16816 20174 ft 203 kts 202°
2026-04-27 13:38 47.59972 1.16071 20175 ft 203 kts 202°
2026-04-27 13:38 47.58651 1.15325 20165 ft 203 kts 202°
2026-04-27 13:39 47.57331 1.14580 20165 ft 203 kts 202°
2026-04-27 13:39 47.56014 1.13836 20168 ft 203 kts 202°
2026-04-27 13:39 47.54692 1.13091 20164 ft 203 kts 202°
2026-04-27 13:39 47.53389 1.12359 20167 ft 204 kts 202°
2026-04-27 13:40 47.52061 1.11615 20164 ft 204 kts 202°
2026-04-27 13:40 47.50739 1.10867 20163 ft 203 kts 202°
2026-04-27 13:40 47.49422 1.10127 20163 ft 202 kts 202°
2026-04-27 13:40 47.48107 1.09385 20162 ft 203 kts 202°
2026-04-27 13:41 47.46789 1.08648 20159 ft 202 kts 202°
2026-04-27 13:41 47.45472 1.07910 20158 ft 203 kts 202°
2026-04-27 13:41 47.44155 1.07170 20157 ft 202 kts 202°
2026-04-27 13:41 47.42844 1.06402 20156 ft 203 kts 207°
2026-04-27 13:42 47.41650 1.05311 20157 ft 201 kts 213°
2026-04-27 13:42 47.40463 1.04219 20160 ft 201 kts 212°
2026-04-27 13:42 47.39271 1.03131 20158 ft 202 kts 213°
2026-04-27 13:42 47.38082 1.02040 20149 ft 201 kts 213°
2026-04-27 13:43 47.36898 1.00948 20155 ft 201 kts 213°
2026-04-27 13:43 47.35711 0.99858 20154 ft 201 kts 213°
2026-04-27 13:43 47.34524 0.98768 20154 ft 201 kts 213°
2026-04-27 13:43 47.33332 0.97680 20154 ft 201 kts 213°
2026-04-27 13:44 47.32141 0.96587 20153 ft 201 kts 213°
2026-04-27 13:44 47.30955 0.95498 20151 ft 201 kts 213°
2026-04-27 13:44 47.29785 0.94427 20154 ft 201 kts 213°
2026-04-27 13:44 47.28599 0.93343 20151 ft 201 kts 213°
2026-04-27 13:45 47.27412 0.92256 20150 ft 201 kts 213°
2026-04-27 13:45 47.26230 0.91178 20151 ft 200 kts 213°
2026-04-27 13:45 47.25046 0.90096 20152 ft 200 kts 213°
2026-04-27 13:45 47.23860 0.89014 20152 ft 201 kts 213°
2026-04-27 13:46 47.22674 0.87930 20151 ft 200 kts 213°
2026-04-27 13:46 47.21488 0.86848 20151 ft 201 kts 213°
2026-04-27 13:46 47.20301 0.85765 20151 ft 201 kts 213°
2026-04-27 13:46 47.19114 0.84684 20152 ft 201 kts 213°
2026-04-27 13:47 47.17923 0.83601 20150 ft 201 kts 213°
2026-04-27 13:47 47.16740 0.82519 20153 ft 200 kts 213°
2026-04-27 13:47 47.15556 0.81444 20157 ft 200 kts 213°
2026-04-27 13:47 47.14371 0.80367 20157 ft 201 kts 213°
2026-04-27 13:48 47.13183 0.79287 20156 ft 200 kts 213°
2026-04-27 13:48 47.11998 0.78209 20156 ft 200 kts 213°
2026-04-27 13:48 47.10811 0.77134 20155 ft 201 kts 213°
2026-04-27 13:48 47.09625 0.76057 20155 ft 200 kts 213°
2026-04-27 13:49 47.08441 0.74982 20153 ft 201 kts 213°
2026-04-27 13:49 47.07253 0.73906 20153 ft 201 kts 213°
2026-04-27 13:49 47.06062 0.72828 20152 ft 201 kts 213°
2026-04-27 13:49 47.04872 0.71750 20152 ft 201 kts 213°
2026-04-27 13:50 47.03682 0.70672 20148 ft 201 kts 213°
2026-04-27 13:50 47.02492 0.69596 20148 ft 201 kts 213°
2026-04-27 13:50 47.01705 0.68883 20148 ft 201 kts 213°
2026-04-27 13:50 47.00514 0.67808 20148 ft 201 kts 213°
2026-04-27 13:51 46.99323 0.66732 20148 ft 201 kts 213°
2026-04-27 13:51 46.98134 0.65658 20147 ft 201 kts 213°
2026-04-27 13:51 46.96554 0.64232 20138 ft 201 kts 213°
2026-04-27 13:51 46.95365 0.63161 20144 ft 200 kts 213°
2026-04-27 13:52 46.94563 0.62439 20149 ft 200 kts 213°
2026-04-27 13:52 46.93375 0.61369 20148 ft 200 kts 213°
2026-04-27 13:52 46.92189 0.60299 20148 ft 201 kts 213°
2026-04-27 13:52 46.91001 0.59229 20147 ft 200 kts 213°
2026-04-27 13:53 46.88626 0.57095 20146 ft 201 kts 213°
2026-04-27 13:53 46.87437 0.56027 20145 ft 200 kts 213°
2026-04-27 13:53 46.86254 0.54960 20145 ft 200 kts 213°
2026-04-27 13:54 46.85067 0.53896 20146 ft 200 kts 213°
2026-04-27 13:54 46.83895 0.52850 20146 ft 200 kts 213°
2026-04-27 13:54 46.82713 0.51787 20146 ft 200 kts 213°
2026-04-27 13:54 46.81528 0.50725 20145 ft 200 kts 213°
2026-04-27 13:55 46.80342 0.49663 20145 ft 200 kts 213°
2026-04-27 13:55 46.79158 0.48604 20145 ft 199 kts 213°
2026-04-27 13:55 46.77974 0.47544 20145 ft 200 kts 213°
2026-04-27 13:55 46.76789 0.46484 20146 ft 200 kts 213°
2026-04-27 13:56 46.75604 0.45424 20146 ft 200 kts 213°
2026-04-27 13:56 46.74420 0.44368 20147 ft 199 kts 213°
2026-04-27 13:56 46.73235 0.43307 20147 ft 200 kts 213°
2026-04-27 13:56 46.72048 0.42249 20148 ft 200 kts 213°
2026-04-27 13:57 46.70857 0.41188 20149 ft 200 kts 213°
2026-04-27 13:57 46.69666 0.40125 20155 ft 201 kts 212°
2026-04-27 13:57 46.68477 0.39065 20154 ft 200 kts 212°
2026-04-27 13:57 46.67291 0.38009 20154 ft 200 kts 212°
2026-04-27 13:58 46.66103 0.36952 20154 ft 200 kts 212°
2026-04-27 13:58 46.64919 0.35897 20154 ft 200 kts 212°
2026-04-27 13:58 46.63730 0.34842 20153 ft 200 kts 212°
2026-04-27 13:58 46.62541 0.33785 20153 ft 200 kts 212°
2026-04-27 13:59 46.61355 0.32730 20153 ft 200 kts 213°
2026-04-27 13:59 46.60169 0.31676 20152 ft 200 kts 212°
2026-04-27 13:59 46.58994 0.30587 20146 ft 199 kts 218°
2026-04-27 13:59 46.58041 0.29139 20148 ft 199 kts 233°
2026-04-27 14:00 46.57389 0.27376 20151 ft 199 kts 246°
2026-04-27 14:00 46.56878 0.25505 20147 ft 199 kts 246°
2026-04-27 14:00 46.56349 0.23651 20151 ft 199 kts 245°
2026-04-27 14:00 46.55823 0.21797 20153 ft 199 kts 246°
2026-04-27 14:01 46.55299 0.19938 20154 ft 199 kts 246°
2026-04-27 14:01 46.54773 0.18077 20154 ft 199 kts 246°
2026-04-27 14:01 46.54247 0.16216 20154 ft 199 kts 245°
2026-04-27 14:01 46.53719 0.14357 20152 ft 199 kts 246°
2026-04-27 14:02 46.53192 0.12496 20151 ft 199 kts 246°
2026-04-27 14:02 46.52666 0.10639 20149 ft 199 kts 245°
2026-04-27 14:02 46.52144 0.08805 20148 ft 199 kts 245°
2026-04-27 14:02 46.51619 0.06947 20147 ft 199 kts 246°
2026-04-27 14:03 46.51093 0.05092 20145 ft 199 kts 246°
2026-04-27 14:03 46.50565 0.03237 20145 ft 199 kts 246°
2026-04-27 14:03 46.50038 0.01377 20144 ft 199 kts 245°
2026-04-27 14:03 46.49506 -0.00482 20145 ft 199 kts 245°
2026-04-27 14:04 46.48976 -0.02339 20141 ft 199 kts 245°
2026-04-27 14:04 46.48445 -0.04200 20138 ft 200 kts 245°
2026-04-27 14:04 46.47914 -0.06062 20139 ft 200 kts 245°
2026-04-27 14:04 46.47382 -0.07923 20139 ft 200 kts 245°
2026-04-27 14:05 46.46849 -0.09788 20140 ft 200 kts 245°
2026-04-27 14:05 46.46317 -0.11650 20140 ft 200 kts 245°
2026-04-27 14:05 46.45784 -0.13512 20139 ft 200 kts 245°
2026-04-27 14:05 46.45250 -0.15373 20140 ft 200 kts 245°
2026-04-27 14:06 46.44716 -0.17235 20139 ft 200 kts 245°
2026-04-27 14:06 46.44182 -0.19095 20139 ft 200 kts 245°
2026-04-27 14:06 46.43648 -0.20955 20139 ft 200 kts 245°
2026-04-27 14:06 46.43112 -0.22818 20137 ft 200 kts 245°
2026-04-27 14:07 46.42578 -0.24680 20138 ft 200 kts 245°
2026-04-27 14:07 46.42040 -0.26541 20138 ft 200 kts 245°
2026-04-27 14:07 46.41505 -0.28403 20137 ft 200 kts 245°
2026-04-27 14:07 46.40970 -0.30263 20137 ft 200 kts 245°
2026-04-27 14:08 46.40431 -0.32122 20134 ft 200 kts 245°
2026-04-27 14:08 46.39896 -0.33980 20133 ft 200 kts 245°
2026-04-27 14:08 46.39361 -0.35833 20133 ft 199 kts 245°
2026-04-27 14:08 46.38825 -0.37685 20133 ft 199 kts 245°
2026-04-27 14:09 46.38289 -0.39535 20133 ft 199 kts 245°
2026-04-27 14:09 46.37754 -0.41386 20133 ft 199 kts 245°
2026-04-27 14:09 46.37218 -0.43231 20132 ft 199 kts 245°
2026-04-27 14:09 46.36683 -0.45079 20132 ft 199 kts 245°
2026-04-27 14:10 46.36148 -0.46923 20134 ft 199 kts 245°
2026-04-27 14:10 46.35600 -0.48813 19810 ft 210 kts 245°
2026-04-27 14:10 46.35056 -0.50742 19379 ft 204 kts 246°
2026-04-27 14:10 46.34522 -0.52608 18954 ft 194 kts 246°
2026-04-27 14:11 46.33988 -0.54424 18534 ft 195 kts 245°
2026-04-27 14:11 46.33453 -0.56233 18059 ft 196 kts 245°
2026-04-27 14:11 46.32920 -0.58053 17584 ft 197 kts 246°
2026-04-27 14:11 46.32387 -0.59880 17106 ft 197 kts 246°
2026-04-27 14:12 46.31854 -0.61708 16645 ft 197 kts 246°
2026-04-27 14:12 46.31320 -0.63536 16188 ft 198 kts 246°
2026-04-27 14:12 46.30762 -0.65414 15748 ft 207 kts 246°
2026-04-27 14:12 46.30193 -0.67354 15313 ft 211 kts 246°
2026-04-27 14:13 46.29620 -0.69323 14888 ft 213 kts 246°
2026-04-27 14:13 46.29043 -0.71299 14462 ft 213 kts 246°
2026-04-27 14:13 46.28462 -0.73277 14040 ft 215 kts 246°
2026-04-27 14:13 46.27880 -0.75264 13575 ft 215 kts 246°
2026-04-27 14:14 46.27303 -0.77227 13108 ft 215 kts 246°
2026-04-27 14:14 46.26719 -0.79218 12643 ft 215 kts 247°
2026-04-27 14:14 46.26126 -0.81229 12187 ft 214 kts 247°
2026-04-27 14:14 46.25552 -0.83183 11743 ft 214 kts 247°
2026-04-27 14:15 46.24969 -0.85159 11299 ft 213 kts 247°
2026-04-27 14:15 46.24389 -0.87125 10854 ft 212 kts 247°
2026-04-27 14:15 46.23811 -0.89086 10424 ft 211 kts 247°
2026-04-27 14:15 46.23234 -0.91038 9990 ft 211 kts 247°
2026-04-27 14:16 46.22659 -0.92981 9518 ft 210 kts 247°
2026-04-27 14:16 46.22086 -0.94918 9051 ft 210 kts 247°
2026-04-27 14:16 46.21515 -0.96850 8593 ft 209 kts 247°
2026-04-27 14:16 46.20940 -0.98777 8142 ft 209 kts 247°
2026-04-27 14:17 46.20372 -1.00702 7695 ft 208 kts 248°
2026-04-27 14:17 46.19804 -1.02617 7256 ft 206 kts 248°
2026-04-27 14:17 46.19249 -1.04494 6822 ft 202 kts 248°
2026-04-27 14:17 46.18705 -1.06338 6377 ft 194 kts 249°
2026-04-27 14:18 46.18200 -1.08061 5910 ft 180 kts 249°
2026-04-27 14:18 46.17693 -1.09674 5407 ft 175 kts 239°
2026-04-27 14:18 46.16852 -1.10957 4764 ft 179 kts 214°
2026-04-27 14:18 46.15723 -1.11523 4292 ft 170 kts 183°
2026-04-27 14:19 46.14537 -1.11398 3711 ft 171 kts 169°
2026-04-27 14:19 46.13374 -1.11165 3245 ft 166 kts 175°
2026-04-27 14:19 46.12244 -1.11537 3040 ft 173 kts 208°
2026-04-27 14:19 46.11333 -1.12655 2921 ft 176 kts 239°
2026-04-27 14:20 46.11117 -1.14303 2849 ft 170 kts 278°
2026-04-27 14:20 46.11436 -1.15937 2701 ft 171 kts 296°
2026-04-27 14:20 46.11991 -1.17482 2414 ft 176 kts 302°
2026-04-27 14:20 46.12603 -1.18967 2339 ft 169 kts 304°
2026-04-27 14:21 46.13231 -1.20389 2237 ft 165 kts 308°
2026-04-27 14:21 46.14019 -1.21555 2144 ft 162 kts 326°
2026-04-27 14:21 46.15010 -1.22305 2065 ft 159 kts 336°
2026-04-27 14:21 46.16004 -1.23009 2027 ft 159 kts 338°
2026-04-27 14:22 46.17041 -1.23592 1948 ft 160 kts 345°
2026-04-27 14:22 46.18120 -1.23773 1921 ft 155 kts
2026-04-27 14:22 46.19139 -1.23560 1611 ft 145 kts 22°
2026-04-27 14:22 46.19765 -1.22572 1486 ft 131 kts 71°
2026-04-27 14:23 46.19880 -1.21284 1242 ft 131 kts 85°
2026-04-27 14:23 46.19869 -1.20001 1072 ft 124 kts 89°
2026-04-27 14:23 46.19797 -1.18825 965 ft 109 kts 92°
2026-04-27 14:23 46.19702 -1.17759 892 ft 109 kts 92°
2026-04-27 14:24 46.19638 -1.16640 807 ft 112 kts 89°
2026-04-27 14:24 46.19426 -1.15589 861 ft 110 kts 123°
2026-04-27 14:24 46.18763 -1.15009 788 ft 118 kts 170°
2026-04-27 14:24 46.18021 -1.15440 676 ft 121 kts 233°
2026-04-27 14:25 46.17808 -1.16563 532 ft 109 kts 272°
2026-04-27 14:25 46.17854 -1.17518 299 ft 86 kts 276°
2026-04-27 14:25 46.17882 -1.18383 109 ft 82 kts 277°
2026-04-27 14:25 46.17916 -1.19180 74 ft 78 kts 271°
2026-04-27 14:26 46.17931 -1.19874 73 ft 60 kts 287°
2026-04-27 14:26 46.17947 -1.20300 71 ft 20 kts 269°
2026-04-27 14:26 46.17943 -1.20418 69 ft 9 kts 117°
2026-04-27 14:26 46.17941 -1.20293 64 ft 17 kts 92°
2026-04-27 14:27 46.17935 -1.20090 73 ft 23 kts 92°
2026-04-27 14:27 46.17929 -1.19836 73 ft 29 kts 93°
2026-04-27 14:27 46.17919 -1.19547 72 ft 18 kts 98°
2026-04-27 14:27 46.17803 -1.19497 72 ft 22 kts 181°
2026-04-27 14:28 46.17684 -1.19507 72 ft 13 kts 195°
2026-04-27 14:28 46.17647 -1.19564 72 ft 6 kts 239°
2026-04-27 14:28 46.17680 -1.19625 72 ft 8 kts 328°
2026-04-27 14:28 46.17701 -1.19657 72 ft 0 kts 230°
2026-04-27 14:29 46.17699 -1.19660 72 ft 2 kts 234°
2026-04-27 14:29 46.17696 -1.19667 72 ft 0 kts 237°